Regional Weather Roundup
Issued by NWS Pendleton, OR

Home | Current Version | Previous Version | Text Only | Print | Product List | Glossary On
Versions: 1 2 3 4 5 6 7 8 9 10 11 12 13 14 15 16 17 18 19 20 21 22 23 24 25 26 27 28 29 30 31 32 33 34 35 36 37 38 39 40 41 42 43 44 45 46 47 48 49 50
308
ASUS46 KPDT 291025
RWRPDT
PENDLETON REGIONAL WEATHER ROUNDUP
NATIONAL WEATHER SERVICE PENDLETON OREGON
300 AM PDT MON MAY 29 2017

NOTE: FAIR INDICATES FEW OR NO CLOUDS BELOW 12,000 FEET WITH NO
SIGNIFICANT WEATHER AND/OR OBSTRUCTIONS TO VISIBILITY.

# INDICATES UNOFFICIAL STATION AND DATA

WAZ520-291110-
EAST SLOPES OF WASHINGTON CASCADES

CITY            SKY/WX      TMP DP  RH  WIND    PRES   REMARKS
#BULLFROG       N/A         49  48  96  CALM    N/A
#CLE ELUM HS    N/A         53  47  80  CALM    30.02R
#CLE ELUM LAKE  N/A         N/A N/A N/A CALM    30.03S
#EASTON DOT     N/A         51  46  83  CALM    N/A
#ELK HTS DOT    N/A         55  55  100 SW1     N/A
#GLENWOOD       N/A         47  44  89  CALM    29.99S
#NELSON 3SW     N/A         54  46  74  CALM    30.18S
#NILE           N/A         55  47  74  CALM    29.33R
#TEANAWAY 4NE   N/A         51  48  89  CALM    N/A
#TROUT LAKE 1NE N/A         53  47  80  CALM    29.99S
#TROUT LAKE 1E  N/A         47  44  89  CALM    30.09S
$$

WAZ521-291110-
SIMCOE HIGHLANDS

CITY            SKY/WX      TMP DP  RH  WIND    PRES   REMARKS
#BICKLETON HS   N/A         58  47  67  W5      30.04F
#CENTERVILLE 1SWN/A         50  43  77  CALM    29.94S
#GOLDENDALE 1NE N/A         54  36  50  N3      N/A
#GOLDENDALE 4W  N/A         52  29  41  CALM    30.08S
#GOODNOE HILLS  N/A         64  47  54  NW8     N/A
#LYLE 6NE       N/A         61  55  81  SE5     29.93S
#PITT 4SE       N/A         59  53  80  CALM    29.98S
$$

WAZ026-291110-
KITTITAS VALLEY

CITY            SKY/WX      TMP DP  RH  WIND    PRES   REMARKS
ELLENSBURG AP   CLEAR       55  47  74  CALM    30.05S
YTC-OPS AREA    CLEAR       70  37  30  CALM    30.11S
#ELLENSBURG CWU N/A         55  47  74  CALM    29.93S
#ELLENSBURG 3NE N/A         54  48  80  CALM    28.13S
#KITTITAS 3S    N/A         47  44  89  CALM    29.99R
#MANASTASH RDG  N/A         65  65  100 NW5     N/A
#ROCKY CYN DOT  N/A         57  49  75  N8      N/A
#RYEGRASS DOT   N/A         59  43  55  NW9     N/A
#THORP 6N       N/A         56  47  72  N7      30.00S
$$

WAZ027-291110-
YAKIMA VALLEY

CITY            SKY/WX      TMP DP  RH  WIND    PRES   REMARKS
SUNNYSIDE AP    CLEAR       54  48  80  CALM    30.01R
YAKIMA AIRPORT  CLEAR       59  48  67  W6      30.03R
YAKIMA-VAGABOND CLEAR       59  42  53  CALM    30.02R
#DONALD 2NE     N/A         67  16  14  NW2     28.85S
#GRANDVIEW      N/A         58  48  69  CALM    29.98S
#MABTON         N/A         56  49  77  CALM    29.99R
#MOXEE 2E       N/A         58  N/A N/A CALM    30.02S
#NACHES 2SW     N/A         63  48  58  W8      30.06S
#OUTLOOK DOT    N/A         60  49  67  CALM    29.97R
#PARKER DOT     N/A         70  45  41  SE12    29.99S
#TERRACE HTS    N/A         59  48  67  CALM    29.93S
#TOPPENISH      N/A         63  51  65  CALM    29.89S
#I82 S UMTANUM RN/A         63  42  46  W1      N/A
#UNION GAP DOT  N/A         65  47  52  N5      30.04S
#WEST VALLEY    N/A         60  48  64  CALM    29.96S
#W YAKIMA       N/A         66  48  52  W5      29.96S
#WILEY CITY 3W  N/A         61  42  50  CALM    30.01R
#ZILLAH DOT     N/A         62  48  60  N2      N/A
$$

WAZ028-291110-
LOWER COLUMBIA BASIN...WASHINGTON

CITY            SKY/WX      TMP DP  RH  WIND    PRES   REMARKS
PASCO           CLEAR       55  51  86  CALM    29.99R
PROSSER AWOS    N/A         54  50  86  CALM    30.04R
RICHLAND AWOS   CLEAR       57  53  86  CALM    29.99R
#BENTON CITY    N/A         60  47  62  CALM    29.88R
#CONNELL 5N     N/A         55  48  77  CALM    29.96S
#CONNELL 5NW    N/A         56  49  77  CALM    29.91R
#ELTOPIA 6NW    N/A         62  51  67  CALM    28.97R
#KAHLOTUS       N/A         57  49  75  S8      29.96R
#KENNEWICK 3S   N/A         64  47  54  CALM    29.96R
#PATERSON       N/A         60  49  67  CALM    29.95R
#PROSSER DOT    N/A         56  52  86  CALM    30.00R
#SAGEMOOR 2W    N/A         58  52  80  CALM    29.82R
#TOUCHET 2S     N/A         46  44  93  CALM    29.95S
#WEST PASCO     N/A         62  50  65  CALM    29.96R
$$

WAZ029-291110-
FOOTHILLS OF THE BLUES...WASHINGTON

CITY            SKY/WX      TMP DP  RH  WIND    PRES   REMARKS
WALLA WALLA AP  CLEAR       63  44  50  E7      30.00S
#CLYDE 6NW      N/A         57  47  69  CALM    29.95R
#DAYTON SCHOOL  N/A         57  39  51  CALM    30.05R
#DELANEY DOT    N/A         50  46  86  CALM    30.03R
#LOWDEN 2SE     N/A         52  49  89  CALM    29.96R
#PLEASANT VIEW 1N/A         63  48  58  NW1     29.98S
#PRESCOTT       N/A         54  49  83  CALM    29.96R
#WHITMAN COLLEGEN/A         66  46  48  CALM    30.00S
#WAITSBURG 6SSE N/A         58  45  62  E3      29.97R
#WAITSBURG 8N   N/A         86  N/A N/A CALM    30.02S
#WALLA WALLA 5E N/A         58  49  72  E5      N/A
#WHITMAN MISSIONN/A         54  50  86  CALM    29.98R
$$

WAZ030-291110-
BLUE MOUNTAINS...WASHINGTON

CITY            SKY/WX      TMP DP  RH  WIND    PRES   REMARKS
#DIXIE 5SE      N/A         69  41  36  S1      30.02S
$$

ORZ009-041-WAZ024-291110-
COLUMBIA RIVER GORGE

CITY            SKY/WX      TMP DP  RH  WIND    PRES   REMARKS
HOOD RIVER AP   CLEAR       57  50  77  CALM    30.03S
THE DALLES AP   CLEAR       67  56  68  NW7     29.99S
#ARLINGTON AIRPON/A         65  48  54  W6      29.96S
#CELILO DOT     N/A         67  54  63  CALM    N/A
#LYLE           N/A         66  55  68  NE1     30.00R
#MARYHILL       N/A         65  52  63  N7      N/A
#MURDOCK        N/A         66  56  70  W14     29.94S
#RUFUS DOT      N/A         66  51  58  SE2     N/A
#SMITHVILLE     N/A         66  56  70  W13     29.92R

$$

ORZ510-291110-
NORTH CENTRAL OREGON

CITY            SKY/WX      TMP DP  RH  WIND    PRES   REMARKS
#ANTELOPE       N/A         60  40  47  NE1     29.80S
#CHENOWITH 1W   N/A         51  35  54  NW14    N/A
#COW CYN RST AREN/A         65  33  30  NE5     N/A
#DUFUR          N/A         52  47  83  CALM    29.95R
#DUFUR 9E       N/A         68  52  57  CALM    29.98S
#GRASS VALLEY 1SN/A         63  44  50  CALM    30.06F
#KENT DOT       N/A         63  34  34  NE3     N/A
#MAUPIN SCHOOL  N/A         62  47  58  CALM    30.05S
#MORO SCHOOL    N/A         61  54  78  CALM    30.11F
#SHANIKO 5WSW   N/A         66  31  27  N12     N/A
#SHANIKO 4NW    N/A         66  33  29  E10     30.10F
#TYGH VALLEY 2NEN/A         58  46  64  CALM    29.96S
#WAPANITIA AIRPON/A         59  46  62  CALM    29.97S
#WASCO DOT      N/A         53  49  86  E2      N/A
#WASCO 5NE      N/A         61  52  72  CALM    29.96S
$$

ORZ511-291110-
CENTRAL OREGON

CITY            SKY/WX      TMP DP  RH  WIND    PRES   REMARKS
BEND AIRPORT    CLEAR       61  39  44  CALM    30.05S
MADRAS AIRPORT  CLEAR       52  41  66  SE6     30.07S
PRINEVILLE AP   CLEAR       59  41  51  S6      30.09S
REDMOND AIRPORT CLEAR       53  37  54  S5      30.08S
#ASHWOOD SCHOOL N/A         58  43  57  S3      30.03S
#BEND 1SW       N/A         51  41  68  SE1     N/A
#BEND-AWBREY    N/A         61  41  48  CALM    29.91F
#BEND-KIM LN    N/A         59  40  49  W5      29.87S
#CULVER         N/A         56  44  64  CALM    29.87S
#CULVER 8W      N/A         61  45  56  CALM    30.06S
#MADRAS 4S      N/A         56  14  19  S6      N/A
#POWELL BUTTE   N/A         61  43  51  CALM    30.05S
#PRINEVILLE     N/A         58  42  55  CALM    30.01S
#PRINEVILLE 3N  N/A         51  43  74  E3      29.94S
#WARM SPRINGS   N/A         66  45  47  CALM    29.82S

$$


ORZ509-291110-
EAST SLOPES OF OREGON CASCADES

CITY            SKY/WX      TMP DP  RH  WIND    PRES   REMARKS
SISTERS AWOS    N/A         52  43  71  CALM    30.06F
#CAMP SHERMAN   N/A         47  41  79  CALM    30.02R
#LA PINE 4SW    N/A         49  38  66  CALM    30.09F
#LA PINE 4NW    N/A         45  39  79  CALM    29.98S
#LAVA BUTTE DOT N/A         51  38  61  CALM    N/A
#SISTERS 3N     N/A         48  37  65  CALM    30.09S
#SUNRIVER       N/A         51  43  74  CALM    29.94S
#TUMALO 3W      N/A         65  39  38  NW3     29.79F
#WANOGA BUTTE D N/A         56  34  43  CALM    N/A

$$

ORZ044-291110-
LOWER COLUMBIA BASIN...OREGON

CITY            SKY/WX      TMP DP  RH  WIND    PRES   REMARKS
HERMISTON       CLEAR       56  50  80  E6      29.98S
#BOARDMAN SCHOOLN/A         57  47  69  CALM    29.97R
#BOARDMAN 8SW   N/A         62  49  62  W3      29.95R
#ECHO 8SW       N/A         56  47  72  CALM    30.00R
#I-84 EX 198 DOTN/A         60  48  64  NE12    N/A
#IONE SCHOOL    N/A         60  43  53  CALM    29.96S
#UMATILLA       N/A         59  48  67  CALM    29.89S
$$

ORZ507-291110-
NORTHERN FOOTHILLS OF THE BLUES

CITY            SKY/WX      TMP DP  RH  WIND    PRES   REMARKS
PENDLETON AIRPT CLEAR       57  47  69  SE6     30.02S
#ADAMS 3WNW     N/A         49  45  86  CALM    29.97R
#ATHENA         N/A         50  44  80  CALM    29.99F
#CAYUSE         N/A         64  45  50  E7      29.94S
#HELIX SCHOOL   N/A         53  46  77  CALM    29.96S
#HELIX 3N       N/A         62  43  50  CALM    30.01S
#HOLDMAN 5SE    N/A         55  48  77  S1      30.01S
#HOLDMAN 6E     N/A         62  46  56  CALM    29.76S
#M-F FERNDALE   N/A         56  44  64  CALM    29.97R
#M-F GROVE ELEM N/A         64  40  41  W1      29.98S
#M-FREEWATER 5SEN/A         64  44  48  NE5     30.01S
#PENDLETON DNTN N/A         56  44  64  CALM    30.01S
#PDT AQUATIC CTRN/A         56  44  64  CALM    30.05S
#PDT SUNRIDGE   N/A         52  46  80  CALM    30.03S
#PENDLETON 7NW  N/A         57  48  72  CALM    31.53S
#PILOT ROCK 1S  N/A         58  40  51  CALM    30.04S
#PILOT ROCK     N/A         58  42  55  CALM    30.05S
#TUTUILLA       N/A         49  44  83  CALM    29.99S
#UMAPINE 2E     N/A         55  46  72  CALM    29.96S
#WESTON SCHOOL  N/A         61  39  44  CALM    29.97S

$$

ORZ508-291110-
SOUTHERN FOOTHILLS OF THE BLUES

CITY            SKY/WX      TMP DP  RH  WIND    PRES   REMARKS
LEXINGTON       CLEAR       61  41  48  E8      30.05S
#AJAX           N/A         69  35  28  S1      30.19S
#CONDON 5W      N/A         68  34  28  NE8     30.09S
#FOSSIL SCHOOL  N/A         52  42  69  CALM    30.01S
#HEPPNER EOC    N/A         62  42  48  E10     29.89S
#LEXINGTON 2SE  N/A         63  44  50  S6      29.99S
#MIKKALO        N/A         59  38  45  SE2     30.14R
#OLEX 4N        N/A         60  43  53  S3      29.98S
#RUGGS 5NE      N/A         61  34  36  CALM    30.27S
#RUGGS 2SW      N/A         63  38  39  SW6     29.96S

$$

ORZ502-503-291110-
BLUE MOUNTAINS

CITY            SKY/WX      TMP DP  RH  WIND    PRES   REMARKS
MEACHAM         CLEAR       43  39  86  CALM    30.14S
#BATTLE MTN DOT N/A         54  36  50  CALM    N/A
#GRANITE        N/A         38  32  79  CALM    29.85S
#HARDMAN 10S    N/A         59  35  40  CALM    30.07S
#LADD CYN SMT   N/A         46  43  89  CALM    N/A
#LADD CREEK ODOTN/A         50  39  66  S3      N/A
#LONG CREEK HS  N/A         50  44  80  CALM    N/A
#N POWDER DOT   N/A         47  44  89  CALM    N/A
#PIKES PEAK     N/A         70  39  32  CALM    27.99S
#SUMMERVILLE 5NWN/A         52  44  74  CALM    30.13R
#TOLLGATE       N/A         56  41  57  CALM    30.03S
#TROY SCHOOL    N/A         54  49  83  CALM    29.88S
#UKIAH          N/A         43  41  93  CALM    29.96S
#WESTON 4E      N/A         66  42  42  E2      29.91S
$$

ORZ505-291110-
JOHN DAY BASIN

CITY            SKY/WX      TMP DP  RH  WIND    PRES   REMARKS
JOHN DAY        CLEAR       55  37  51  CALM    30.13S
#ANTELOPE 9ESE  N/A         58  43  57  SW2     N/A
#DAYVILLE SCHOOLN/A         57  41  55  CALM    30.05R
#MITCHELL       N/A         56  45  66  E2      30.24S
#MITCHELL 8NW   N/A         66  38  36  CALM    29.93S
#MONUMENT HS    N/A         53  43  69  CALM    30.03R
#MT. VERNON 5SE N/A         59  35  40  CALM    30.09R
#SPRAY SCHOOL   N/A         53  N/A N/A CALM    N/A
$$

ORZ506-291110-
OCHOCO AND JOHN DAY HIGHLANDS

CITY            SKY/WX      TMP DP  RH  WIND    PRES   REMARKS
#HORSE RIDGE DO N/A         44  31  60  SE1     N/A
#PAULINA ODOT   N/A         51  38  61  CALM    N/A
#PINE MTN OBS   N/A         59  33  37  E7      N/A
#PRAIRIE CITY   N/A         46  39  76  CALM    30.26S
#SENECA         N/A         44  N/A N/A CALM    N/A
#SENECA 9NW     N/A         40  36  85  CALM    30.01S
$$

ORZ049-291110-
GRANDE RONDE VALLEY

CITY            SKY/WX      TMP DP  RH  WIND    PRES   REMARKS
LA GRANDE       CLEAR       55  41  59  SW3     30.10R
#COVE           N/A         50  46  86  NE1     30.14R
#COVE SCHOOL    N/A         50  44  80  CALM    30.12R
#COVE 6NW       N/A         50  43  77  CALM    30.02R
#ELGIN 3N       N/A         49  40  71  CALM    30.08S
#ELGIN 1E       N/A         50  42  74  CALM    N/A
#IMBLER SCHOOL  N/A         53  42  66  CALM    30.06R
#ISLAND CITY 4N N/A         54  52  93  CALM    30.08R
#LA GRANDE-LEFFEN/A         57  41  55  CALM    30.10R
#UNION 1S       N/A         50  43  77  CALM    30.01R
$$

ORZ050-291110-
WALLOWA COUNTY

CITY            SKY/WX      TMP DP  RH  WIND    PRES   REMARKS
JOSEPH AIRPORT  CLEAR       50  41  71  S5      30.17S
#ENTERPRISE HS  N/A         48  43  83  CALM    29.89S
#IMNAHA SCHOOL  N/A         54  48  80  SE1     30.09S
#IMNAHA 10S     N/A         55  44  66  S3      30.11R
#JOSEPH         N/A         59  42  53  CALM    30.12F
#JOSEPH 3N      N/A         46  37  71  NE2     30.16F
#LOSTINE        N/A         50  43  77  CALM    29.82S
#LOSTINE 3SE    N/A         51  43  74  S3      30.17S
#MT HOWARD 8000 N/A         53  30  41  SE1     30.36F
#PROMISE 1S     N/A         52  45  77  S2      30.08S
#WALLOWA LAKE   N/A         56  39  53  SW3     30.18F
#WALLOWA SCHOOL N/A         46  43  89  CALM    30.08S



$$



USA.gov is the U.S. government's official web portal to all federal, state and local government web resources and services.